Zurück zum Katalog

COSMOS 2251 DEB

AktivLEO
NORAD 36048·DEBRIS·🇷🇺 Russia

Gestartet Jun 16, 1993 von Plesetsk Cosmodrome

Loading…

Nächste Überflüge (nächste 24 Stunden)

TLE

AktuellSource: Space-Track

Epoche: Sep 14, 2026, 10:59 UTC

1 36048U 93036AXK 26257.45769561  .00000381  00000-0  13351-3 0  9995
2 36048  74.0570 152.0675 0025873 138.8946  35.7875 14.38203767894654

Verfolge COSMOS 2251 DEB in Echtzeit mit AllMySat

Download on the App Store